HISTORICAL SENSOR DATA

Sensor Data Report

DB LIVE
CURRENT TIME--:--:--
DEVICE NETWORK Gateway Status
13 ESP · realtime ~1s · history 60s
Weather WS-MOD-01
OFFLINE
Actuator ACT-MOD-01
OFFLINE
Mainboard L3 MB-L3-01
OFFLINE
Mainboard L5 MB-L5-01
OFFLINE
Remote AC AC-REMOTE-01
OFFLINE
PZEM L3-01 PWR-L3-01
OFFLINE
PZEM L3-02 PWR-L3-02
OFFLINE
PZEM L3-03 PWR-L3-03
OFFLINE
PZEM L3-04 PWR-L3-04
OFFLINE
PZEM L5-01 PWR-L5-01
OFFLINE
PZEM L5-02 PWR-L5-02
OFFLINE
PZEM L5-03 PWR-L5-03
OFFLINE
PZEM L5-04 PWR-L5-04
OFFLINE
REPORT FILTER

Periode & Sensor

DATABASE HISTORY
RESET
QUICK RANGE Hari ini 7 hari 30 hari
PERIODE04 Aug 2026sampai 02 Sep 2026
TOTAL DATA40,278sensor readings
MINIMUM-0.50sesuai filter
AVERAGE56.78sesuai filter
MAXIMUM998.00sesuai filter
REPORT RESULT

Data Sensor

04/08/2026 — 02/09/2026 EXPORT CSV
NOTANGGALWAKTUDEVICECHANNELSENSORVALUEUNIT
9101 02/09/2026 15:39:02 WS-MOD-01Weather Station Module WS-PRES Tekanan Udara 998.00 hPa
9102 02/09/2026 15:39:02 WS-MOD-01Weather Station Module WS-TEMP Suhu Udara 30.20 °C
9103 02/09/2026 15:39:02 WS-MOD-01Weather Station Module WS-RH Kelembapan Udara 62.70 %RH
9104 02/09/2026 15:38:57 WS-MOD-01Weather Station Module WS-PRES Tekanan Udara 998.00 hPa
9105 02/09/2026 15:38:57 WS-MOD-01Weather Station Module WS-TEMP Suhu Udara 30.20 °C
9106 02/09/2026 15:38:57 WS-MOD-01Weather Station Module WS-RH Kelembapan Udara 62.60 %RH
9107 02/09/2026 15:38:57 WS-MOD-01Weather Station Module WS-WIND Kecepatan Angin 0.02 m/s
9108 02/09/2026 15:38:57 WS-MOD-01Weather Station Module WS-DIR Arah Angin 307.60 °
9109 02/09/2026 15:38:52 WS-MOD-01Weather Station Module WS-TEMP Suhu Udara 30.20 °C
9110 02/09/2026 15:38:52 WS-MOD-01Weather Station Module WS-RH Kelembapan Udara 62.60 %RH
9111 02/09/2026 15:38:52 WS-MOD-01Weather Station Module WS-WIND Kecepatan Angin 0.02 m/s
9112 02/09/2026 15:38:52 WS-MOD-01Weather Station Module WS-DIR Arah Angin 307.50 °
9113 02/09/2026 15:38:52 WS-MOD-01Weather Station Module WS-PRES Tekanan Udara 998.00 hPa
9114 02/09/2026 15:38:47 WS-MOD-01Weather Station Module WS-RH Kelembapan Udara 62.50 %RH
9115 02/09/2026 15:38:47 WS-MOD-01Weather Station Module WS-WIND Kecepatan Angin 0.02 m/s
9116 02/09/2026 15:38:47 WS-MOD-01Weather Station Module WS-DIR Arah Angin 309.50 °
9117 02/09/2026 15:38:47 WS-MOD-01Weather Station Module WS-PRES Tekanan Udara 998.00 hPa
9118 02/09/2026 15:38:47 WS-MOD-01Weather Station Module WS-TEMP Suhu Udara 30.20 °C
9119 02/09/2026 15:38:42 WS-MOD-01Weather Station Module WS-RH Kelembapan Udara 62.70 %RH
9120 02/09/2026 15:38:42 WS-MOD-01Weather Station Module WS-WIND Kecepatan Angin 0.01 m/s
9121 02/09/2026 15:38:42 WS-MOD-01Weather Station Module WS-DIR Arah Angin 311.20 °
9122 02/09/2026 15:38:42 WS-MOD-01Weather Station Module WS-PRES Tekanan Udara 998.00 hPa
9123 02/09/2026 15:38:42 WS-MOD-01Weather Station Module WS-TEMP Suhu Udara 30.20 °C
9124 02/09/2026 15:38:37 WS-MOD-01Weather Station Module WS-DIR Arah Angin 311.00 °
9125 02/09/2026 15:38:37 WS-MOD-01Weather Station Module WS-PRES Tekanan Udara 998.00 hPa
9126 02/09/2026 15:38:37 WS-MOD-01Weather Station Module WS-TEMP Suhu Udara 30.20 °C
9127 02/09/2026 15:38:37 WS-MOD-01Weather Station Module WS-RH Kelembapan Udara 62.80 %RH
9128 02/09/2026 15:38:37 WS-MOD-01Weather Station Module WS-WIND Kecepatan Angin 0.03 m/s
9129 02/09/2026 15:38:32 WS-MOD-01Weather Station Module WS-PRES Tekanan Udara 998.00 hPa
9130 02/09/2026 15:38:32 WS-MOD-01Weather Station Module WS-TEMP Suhu Udara 30.20 °C
9131 02/09/2026 15:38:32 WS-MOD-01Weather Station Module WS-RH Kelembapan Udara 62.90 %RH
9132 02/09/2026 15:38:32 WS-MOD-01Weather Station Module WS-WIND Kecepatan Angin 0.02 m/s
9133 02/09/2026 15:38:32 WS-MOD-01Weather Station Module WS-DIR Arah Angin 311.60 °
9134 02/09/2026 15:38:27 WS-MOD-01Weather Station Module WS-RH Kelembapan Udara 62.80 %RH
9135 02/09/2026 15:38:27 WS-MOD-01Weather Station Module WS-WIND Kecepatan Angin 0.01 m/s
9136 02/09/2026 15:38:27 WS-MOD-01Weather Station Module WS-DIR Arah Angin 310.00 °
9137 02/09/2026 15:38:27 WS-MOD-01Weather Station Module WS-PRES Tekanan Udara 998.00 hPa
9138 02/09/2026 15:38:27 WS-MOD-01Weather Station Module WS-TEMP Suhu Udara 30.20 °C
9139 02/09/2026 15:38:23 WS-MOD-01Weather Station Module WS-RH Kelembapan Udara 62.90 %RH
9140 02/09/2026 15:38:23 WS-MOD-01Weather Station Module WS-WIND Kecepatan Angin 0.02 m/s
9141 02/09/2026 15:38:23 WS-MOD-01Weather Station Module WS-DIR Arah Angin 310.00 °
9142 02/09/2026 15:38:23 WS-MOD-01Weather Station Module WS-PRES Tekanan Udara 998.00 hPa
9143 02/09/2026 15:38:23 WS-MOD-01Weather Station Module WS-TEMP Suhu Udara 30.20 °C
9144 02/09/2026 15:38:22 WS-MOD-01Weather Station Module WS-WIND Kecepatan Angin 0.02 m/s
9145 02/09/2026 15:38:22 WS-MOD-01Weather Station Module WS-DIR Arah Angin 310.00 °
9146 02/09/2026 15:38:22 WS-MOD-01Weather Station Module WS-PRES Tekanan Udara 998.00 hPa
9147 02/09/2026 15:38:22 WS-MOD-01Weather Station Module WS-TEMP Suhu Udara 30.20 °C
9148 02/09/2026 15:38:22 WS-MOD-01Weather Station Module WS-RH Kelembapan Udara 62.70 %RH
9149 02/09/2026 15:38:16 WS-MOD-01Weather Station Module WS-PRES Tekanan Udara 998.00 hPa
9150 02/09/2026 15:38:16 WS-MOD-01Weather Station Module WS-TEMP Suhu Udara 30.20 °C
9151 02/09/2026 15:38:16 WS-MOD-01Weather Station Module WS-RH Kelembapan Udara 62.70 %RH
9152 02/09/2026 15:38:16 WS-MOD-01Weather Station Module WS-WIND Kecepatan Angin 0.02 m/s
9153 02/09/2026 15:38:16 WS-MOD-01Weather Station Module WS-DIR Arah Angin 309.10 °
9154 02/09/2026 15:38:06 WS-MOD-01Weather Station Module WS-TEMP Suhu Udara 30.20 °C
9155 02/09/2026 15:38:06 WS-MOD-01Weather Station Module WS-RH Kelembapan Udara 62.70 %RH
9156 02/09/2026 15:38:06 WS-MOD-01Weather Station Module WS-WIND Kecepatan Angin 0.03 m/s
9157 02/09/2026 15:38:06 WS-MOD-01Weather Station Module WS-DIR Arah Angin 308.90 °
9158 02/09/2026 15:38:06 WS-MOD-01Weather Station Module WS-PRES Tekanan Udara 998.00 hPa
9159 02/09/2026 15:38:01 WS-MOD-01Weather Station Module WS-RH Kelembapan Udara 62.60 %RH
9160 02/09/2026 15:38:01 WS-MOD-01Weather Station Module WS-WIND Kecepatan Angin 0.03 m/s
9161 02/09/2026 15:38:01 WS-MOD-01Weather Station Module WS-DIR Arah Angin 308.70 °
9162 02/09/2026 15:38:01 WS-MOD-01Weather Station Module WS-PRES Tekanan Udara 998.00 hPa
9163 02/09/2026 15:38:01 WS-MOD-01Weather Station Module WS-TEMP Suhu Udara 30.20 °C
9164 02/09/2026 15:37:56 WS-MOD-01Weather Station Module WS-RH Kelembapan Udara 62.80 %RH
9165 02/09/2026 15:37:56 WS-MOD-01Weather Station Module WS-WIND Kecepatan Angin 0.03 m/s
9166 02/09/2026 15:37:56 WS-MOD-01Weather Station Module WS-DIR Arah Angin 309.30 °
9167 02/09/2026 15:37:56 WS-MOD-01Weather Station Module WS-PRES Tekanan Udara 998.00 hPa
9168 02/09/2026 15:37:56 WS-MOD-01Weather Station Module WS-TEMP Suhu Udara 30.20 °C
9169 02/09/2026 15:37:51 WS-MOD-01Weather Station Module WS-DIR Arah Angin 309.60 °
9170 02/09/2026 15:37:51 WS-MOD-01Weather Station Module WS-PRES Tekanan Udara 998.00 hPa
9171 02/09/2026 15:37:51 WS-MOD-01Weather Station Module WS-TEMP Suhu Udara 30.20 °C
9172 02/09/2026 15:37:51 WS-MOD-01Weather Station Module WS-RH Kelembapan Udara 63.00 %RH
9173 02/09/2026 15:37:51 WS-MOD-01Weather Station Module WS-WIND Kecepatan Angin 0.03 m/s
9174 02/09/2026 15:37:46 WS-MOD-01Weather Station Module WS-PRES Tekanan Udara 998.00 hPa
9175 02/09/2026 15:37:46 WS-MOD-01Weather Station Module WS-TEMP Suhu Udara 30.20 °C
9176 02/09/2026 15:37:46 WS-MOD-01Weather Station Module WS-RH Kelembapan Udara 62.90 %RH
9177 02/09/2026 15:37:46 WS-MOD-01Weather Station Module WS-WIND Kecepatan Angin 0.02 m/s
9178 02/09/2026 15:37:46 WS-MOD-01Weather Station Module WS-DIR Arah Angin 309.70 °
9179 02/09/2026 15:37:41 WS-MOD-01Weather Station Module WS-RH Kelembapan Udara 62.80 %RH
9180 02/09/2026 15:37:41 WS-MOD-01Weather Station Module WS-WIND Kecepatan Angin 0.02 m/s
9181 02/09/2026 15:37:41 WS-MOD-01Weather Station Module WS-DIR Arah Angin 309.70 °
9182 02/09/2026 15:37:41 WS-MOD-01Weather Station Module WS-PRES Tekanan Udara 998.00 hPa
9183 02/09/2026 15:37:41 WS-MOD-01Weather Station Module WS-TEMP Suhu Udara 30.20 °C
9184 02/09/2026 15:37:36 WS-MOD-01Weather Station Module WS-RH Kelembapan Udara 62.80 %RH
9185 02/09/2026 15:37:36 WS-MOD-01Weather Station Module WS-WIND Kecepatan Angin 0.04 m/s
9186 02/09/2026 15:37:36 WS-MOD-01Weather Station Module WS-DIR Arah Angin 309.80 °
9187 02/09/2026 15:37:36 WS-MOD-01Weather Station Module WS-PRES Tekanan Udara 998.00 hPa
9188 02/09/2026 15:37:36 WS-MOD-01Weather Station Module WS-TEMP Suhu Udara 30.20 °C
9189 02/09/2026 15:37:31 WS-MOD-01Weather Station Module WS-WIND Kecepatan Angin 0.02 m/s
9190 02/09/2026 15:37:31 WS-MOD-01Weather Station Module WS-DIR Arah Angin 310.10 °
9191 02/09/2026 15:37:31 WS-MOD-01Weather Station Module WS-PRES Tekanan Udara 998.00 hPa
9192 02/09/2026 15:37:31 WS-MOD-01Weather Station Module WS-TEMP Suhu Udara 30.20 °C
9193 02/09/2026 15:37:31 WS-MOD-01Weather Station Module WS-RH Kelembapan Udara 62.70 %RH
9194 02/09/2026 15:37:26 WS-MOD-01Weather Station Module WS-PRES Tekanan Udara 998.00 hPa
9195 02/09/2026 15:37:26 WS-MOD-01Weather Station Module WS-TEMP Suhu Udara 30.20 °C
9196 02/09/2026 15:37:26 WS-MOD-01Weather Station Module WS-RH Kelembapan Udara 62.60 %RH
9197 02/09/2026 15:37:26 WS-MOD-01Weather Station Module WS-WIND Kecepatan Angin 0.01 m/s
9198 02/09/2026 15:37:26 WS-MOD-01Weather Station Module WS-DIR Arah Angin 310.30 °
9199 02/09/2026 15:37:21 WS-MOD-01Weather Station Module WS-TEMP Suhu Udara 30.20 °C
9200 02/09/2026 15:37:21 WS-MOD-01Weather Station Module WS-RH Kelembapan Udara 62.60 %RH
Menampilkan maksimal 100 data per halaman